Regional Weather Roundup
Issued by NWS

Home | Current Version | Previous Version | Graphics & Text | Print | Product List | Glossary On
Versions: 1 2 3 4 5 6 7 8 9 10 11 12 13 14 15 16 17 18 19 20 21 22 23 24 25 26 27 28 29 30 31 32 33 34 35 36 37 38 39 40 41 42 43 44 45 46 47 48 49 50
000
ASUS44 KMEG 250510
RWRTN
TENNESSEE HOURLY STATE WEATHER ROUNDUP
NATIONAL WEATHER SERVICE MEMPHIS TN
1200 AM CDT TUE JUL 25 2017

TNZ002-004-019-021-049-052-054-088>092-250600-
WEST TENNESSEE

CITY           SKY/WX    TMP DP  RH WIND       PRES   REMARKS
MEMPHIS INTL   PTCLDY    80  75  84 SW6       30.00R
NWS MEMPHIS      N/A     80 N/A N/A MISG        N/A
JACKSON        CLEAR     76  76 100 SE3       30.01R
SOMERVILLE       N/A     79  73  83 CALM      30.00R
COVINGTON      PTCLDY    75  75 100 CALM      29.99R
UNION CITY     CLEAR     75  73  94 CALM      29.98F
BOLIVAR        CLEAR     75  70  83 CALM      30.01R
PARIS          CLEAR     73  72  94 CALM      29.99F
HUNTINGDON     CLEAR     75  75 100 CALM      30.00R
SELMER         CLEAR     72  70  94 CALM      30.02R
SAVANNAH       CLEAR     72  72 100 CALM      30.01R
$$

TNZ008-025-027-028-033-062-065-066-250600-
NORTH MIDDLE TENNESSEE

CITY           SKY/WX    TMP DP  RH WIND       PRES   REMARKS
NASHVILLE      PTCLDY    82  74  76 NE3       30.02R
PORTLAND         N/A     75  73  94 CALM      30.03R
CLARKSVILLE    PTCLDY    76  72  87 CALM      30.01S
SMYRNA         PTCLDY    80  74  81 CALM      30.03R
COOKEVILLE     PTCLDY    68  68 100 CALM      30.05R
GALLATIN       CLEAR     77  75  94 CALM      30.04S
CROSSVILLE     PTCLDY    69  67  93 CALM      30.11R
$$

TNZ061-075-076-078-094-096-097-250600-
SOUTH MIDDLE TENNESSEE

CITY           SKY/WX    TMP DP  RH WIND       PRES   REMARKS
FAYETTEVILLE   CLEAR     75  72  88 CALM      30.04S
TULLAHOMA      CLEAR     73  70  88 CALM      30.07R
WINCHESTER     CLEAR     73  72  94 CALM      30.06R
MCMINNVILLE    CLEAR     73  73 100 CALM      30.06R
COLUMBIA       MOCLDY    75  75 100 CALM      30.01R
SHELBYVILLE    CLEAR     75  73  94 CALM      30.03S
$$

TNZ017-018-042-046-047-250600-
NORTHEAST TENNESSEE

CITY           SKY/WX    TMP DP  RH WIND       PRES   REMARKS
TRI CITIES     CLOUDY    75  67  76 CALM      30.07F
ELIZABETHTON   CLOUDY    72  68  88 CALM      30.09S
$$

TNZ012-013-036-069-073-074-250600-
CENTRAL EAST TENNESSEE

CITY           SKY/WX    TMP DP  RH WIND       PRES   REMARKS
KNOXVILLE      MOCLDY    76  68  76 CALM      30.04R
OAK RIDGE      PTCLDY    75  71  87 CALM      30.06R
DOWNTOWN KNOXV CLEAR     72  72 100 CALM      30.03S
GATLINBURG     CLEAR     72  70  94 CALM      30.04S
MORRISTOWN     CLEAR     72  70  94 CALM      30.05S
JACKSBORO      CLEAR     70  70 100 CALM      30.09S FOG
$$

TNZ083-085-099-250600-
SOUTHEAST TENNESSEE

CITY           SKY/WX    TMP DP  RH WIND       PRES   REMARKS
CHATTANOOGA    MOCLDY    79  75  87 CALM      30.03S
DAYTON         MOCLDY    75  75 100 CALM      30.02S
$$

SKY/WX REPORTED AS FAIR MEANS FEW OR NO CLOUDS BELOW
12 THOUSAND FEET.





USA.gov is the U.S. government's official web portal to all federal, state and local government web resources and services.